CW6245 Weather Reports


time (UTC)temp
C
wind
direction
speed
KPH
gust
KPH
rain 1hr
cm
rain 24hr
cm
rain mn
cm
humidity
%
barometer
mb
20260508043802 6 334 8.0 16.1 0.00 0.00 0.00 68 730.8
20260508043302 6 339 9.7 17.7 0.00 0.00 0.00 63 730.8
20260508042805 6 335 8.0 16.1 0.00 0.00 0.00 66 730.8
20260508042306 6 338 9.7 19.3 0.00 0.00 0.00 68 730.8
20260508041802 6 335 9.7 16.1 0.00 0.00 0.00 68 730.8
20260508041303 6 334 6.4 12.9 0.00 0.00 0.00 64 730.8
20260508040802 6 340 9.7 14.5 0.00 0.00 0.00 64 730.4
20260508040302 6 337 8.0 14.5 0.00 0.00 0.00 62 730.4
20260508035803 6 332 8.0 17.7 0.00 0.00 0.00 69 730.4
20260508035306 7 334 8.0 14.5 0.00 0.00 0.00 64 730.4
20260508034806 7 343 9.7 22.5 0.00 0.00 0.00 48 730.4
20260508034303 7 342 9.7 20.9 0.00 0.00 0.00 48 730.4
20260508033802 6 340 9.7 17.7 0.00 0.00 0.00 66 730.4
20260508033302 6 340 8.0 12.9 0.00 0.00 0.00 65 730.4
20260508032802 6 343 8.0 17.7 0.00 0.00 0.00 65 730.4
20260508032306 6 329 4.8 11.3 0.00 0.00 0.00 71 730.4
20260508031803 7 329 4.8 9.7 0.00 0.00 0.00 65 730.4
20260508031303 7 339 4.8 14.5 0.00 0.00 0.00 57 730.4
20260508030803 7 342 8.0 14.5 0.00 0.00 0.00 60 730.4
20260508030307 7 338 6.4 11.3 0.00 0.00 0.00 69 730.4
20260508025805 7 334 6.4 11.3 0.00 0.00 0.00 69 730.4
20260508025305 7 334 6.4 11.3 0.00 0.00 0.00 71 730.1
20260508024803 7 337 4.8 14.5 0.00 0.00 0.00 72 730.1
20260508024302 7 344 4.8 11.3 0.00 0.00 0.00 71 730.1
20260508023803 7 334 6.4 11.3 0.00 0.00 0.00 70 730.1
20260508023303 7 335 6.4 11.3 0.00 0.00 0.00 68 730.1
20260508022802 7 325 4.8 9.7 0.00 0.00 0.00 64 730.1
20260508022306 8 337 3.2 8.0 0.00 0.00 0.00 55 730.1
20260508021802 8 327 3.2 12.9 0.00 0.00 0.00 51 730.1
20260508021303 8 342 6.4 14.5 0.00 0.00 0.00 51 729.8
20260508020802 8 345 6.4 14.5 0.00 0.00 0.00 52 729.8
20260508020307 8 342 6.4 12.9 0.00 0.00 0.00 50 729.8
20260508015802 8 333 6.4 14.5 0.00 0.00 0.00 49 729.8
20260508015305 8 351 8.0 17.7 0.00 0.00 0.00 48 729.8
20260508014807 9 323 4.8 16.1 0.00 0.00 0.00 47 729.8
20260508014303 9 325 6.4 19.3 0.00 0.00 0.00 47 729.8
20260508013802 9 354 9.7 19.3 0.00 0.00 0.00 47 729.8
20260508013302 9 345 8.0 20.9 0.00 0.00 0.00 47 729.8
20260508012802 9 344 8.0 20.9 0.00 0.00 0.00 46 729.8
20260508012307 10 340 8.0 20.9 0.00 0.00 0.00 44 729.8
20260508011803 10 333 4.8 16.1 0.00 0.00 0.00 44 729.8
20260508011302 10 332 4.8 16.1 0.00 0.00 0.00 44 729.8
20260508010803 10 325 4.8 17.7 0.00 0.00 0.00 46 729.8
20260508010302 9 332 3.2 25.7 0.00 0.00 0.00 46 729.8
20260508005802 10 336 6.4 17.7 0.00 0.00 0.00 45 729.4
20260508005305 10 300 3.2 22.5 0.00 0.00 0.00 44 729.8
20260508004802 10 328 4.8 20.9 0.00 0.00 0.00 43 729.4
20260508004303 10 332 8.0 24.1 0.00 0.00 0.00 43 729.4
20260508003802 10 320 4.8 16.1 0.00 0.00 0.00 41 729.4
20260508003302 10 334 8.0 17.7 0.00 0.00 0.00 40 729.4
20260508002803 10 134 8.0 20.9 0.00 0.00 0.00 41 729.4
20260508002306 10 338 8.0 20.9 0.00 0.00 0.00 40 729.4
20260508001803 10 344 6.4 20.9 0.00 0.00 0.00 40 729.4
20260508001302 10 336 6.4 27.4 0.00 0.00 0.00 42 729.4
20260508000803 10 326 8.0 27.4 0.00 0.00 0.00 42 729.4
20260508000305 10 353 11.3 27.4 0.00 0.00 0.00 41 729.4
20260507235802 10 350 11.3 29.0 0.00 0.00 0.00 41 729.4
20260507235307 11 18 6.4 14.5 0.00 0.00 0.00 39 729.4
20260507234802 11 310 6.4 24.1 0.00 0.00 0.00 40 729.4
20260507234302 10 340 1.6 19.3 0.00 0.00 0.00 41 729.4
20260507233802 10 334 4.8 32.2 0.00 0.00 0.00 41 729.1
20260507233302 11 346 16.1 33.8 0.00 0.00 0.00 40 729.4
20260507232803 11 276 4.8 24.1 0.00 0.00 0.00 39 729.4
20260507232306 10 327 4.8 20.9 0.00 0.00 0.00 41 729.4
20260507231802 10 13 12.9 30.6 0.00 0.00 0.00 41 729.4
20260507231303 10 358 11.3 30.6 0.00 0.00 0.00 41 729.4
20260507230802 10 4 14.5 27.4 0.00 0.00 0.00 42 729.4
20260507230302 10 352 12.9 32.2 0.00 0.00 0.00 40 729.4
20260507225803 10 339 3.2 16.1 0.00 0.00 0.00 41 729.4
20260507225305 10 349 9.7 35.4 0.00 0.00 0.00 41 729.4
20260507224802 10 341 8.0 22.5 0.00 0.00 0.00 40 729.4
20260507224305 10 327 9.7 38.6 0.00 0.00 0.00 40 729.4
20260507223803 10 313 8.0 29.0 0.00 0.00 0.00 40 729.4
20260507223302 11 322 8.0 22.5 0.00 0.00 0.00 39 729.4
20260507222802 11 273 4.8 19.3 0.00 0.00 0.00 39 729.4
20260507222305 10 324 6.4 24.1 0.00 0.00 0.00 40 729.4
20260507221802 10 17 8.0 29.0 0.00 0.00 0.00 38 729.4
20260507221303 10 303 4.8 33.8 0.00 0.00 0.00 37 729.4
20260507220802 10 338 4.8 29.0 0.00 0.00 0.00 39 729.4
20260507220302 10 333 6.4 29.0 0.00 0.00 0.00 40 729.8
20260507215802 11 292 3.2 25.7 0.00 0.00 0.00 39 729.8
20260507215306 11 333 8.0 25.7 0.00 0.00 0.00 39 729.4
20260507214803 11 336 4.8 17.7 0.00 0.00 0.00 40 729.8
20260507214306 10 322 9.7 20.9 0.00 0.00 0.00 41 729.8
20260507213802 10 342 4.8 24.1 0.00 0.00 0.00 42 729.8
20260507213302 10 328 8.0 25.7 0.00 0.00 0.00 41 729.8
20260507212802 11 330 11.3 25.7 0.00 0.00 0.00 40 729.8
20260507212306 10 321 9.7 32.2 0.00 0.00 0.00 42 729.8
20260507211802 10 329 14.5 27.4 0.00 0.00 0.00 41 729.8
20260507211302 10 332 8.0 22.5 0.00 0.00 0.00 41 729.8
20260507210802 10 326 9.7 25.7 0.00 0.00 0.00 39 729.8
20260507210302 10 303 4.8 27.4 0.00 0.00 0.00 42 729.8
20260507205802 10 350 14.5 29.0 0.00 0.00 0.00 41 729.8
20260507205306 10 345 12.9 24.1 0.00 0.00 0.00 42 729.8
20260507204807 10 358 11.3 24.1 0.00 0.00 0.00 42 730.1
20260507204302 10 350 4.8 27.4 0.00 0.00 0.00 42 730.1
20260507203802 10 334 14.5 29.0 0.00 0.00 0.00 42 729.8
20260507203302 9 15 14.5 32.2 0.00 0.00 0.00 43 730.1
20260507202802 9 4 11.3 38.6 0.00 0.00 0.00 43 729.8
20260507202306 9 3 17.7 29.0 0.00 0.00 0.00 43 730.1
20260507201805 8 0 19.3 35.4 0.00 0.00 0.00 42 730.1
20260507201303 9 356 16.1 33.8 0.00 0.00 0.00 45 729.8
20260507200802 9 356 12.9 32.2 0.00 0.00 0.00 46 729.8
20260507200307 9 358 12.9 27.4 0.00 0.00 0.00 46 730.1
20260507195807 8 355 11.3 30.6 0.00 0.00 0.00 49 729.8
20260507195305 9 7 17.7 29.0 0.00 0.00 0.00 46 729.8
20260507194802 8 321 4.8 38.6 0.00 0.00 0.00 48 730.1
20260507194305 9 337 8.0 35.4 0.00 0.00 0.00 48 730.1
20260507193804 8 11 12.9 37.0 0.00 0.00 0.00 48 730.1
20260507193307 8 342 12.9 32.2 0.00 0.00 0.00 49 729.8
20260507192802 8 356 16.1 29.0 0.00 0.00 0.00 50 730.1
20260507192305 9 0 14.5 29.0 0.00 0.00 0.00 49 730.1
20260507191807 9 348 12.9 29.0 0.00 0.00 0.00 49 729.8
20260507191302 8 0 9.7 35.4 0.00 0.00 0.00 51 730.1
20260507190807 8 15 16.1 32.2 0.00 0.00 0.00 49 730.1
20260507190303 8 347 16.1 29.0 0.00 0.00 0.00 51 730.1
20260507185802 7 0 16.1 33.8 0.00 0.00 0.00 53 730.1
20260507185305 8 31 9.7 30.6 0.00 0.00 0.00 52 730.1
20260507184803 8 6 12.9 30.6 0.00 0.00 0.00 52 730.1
20260507184303 8 34 12.9 27.4 0.00 0.00 0.00 52 730.1
20260507183802 8 9 16.1 32.2 0.00 0.00 0.00 51 730.1
20260507183304 8 10 16.1 32.2 0.00 0.00 0.00 52 730.1
20260507182802 7 15 9.7 32.2 0.00 0.00 0.00 53 730.1
20260507182307 8 355 16.1 27.4 0.00 0.00 0.00 52 730.1
20260507181802 7 12 12.9 33.8 0.00 0.00 0.00 53 730.1
20260507181305 7 2 19.3 37.0 0.00 0.00 0.00 54 729.8
20260507180802 8 1 16.1 29.0 0.00 0.00 0.00 53 729.8
20260507180302 7 335 11.3 32.2 0.00 0.00 0.00 53 729.8
20260507175802 7 11 17.7 30.6 0.00 0.00 0.00 52 729.8
20260507175306 7 6 14.5 30.6 0.00 0.00 0.00 53 729.8
20260507174802 7 10 14.5 37.0 0.00 0.00 0.00 52 729.8
20260507174303 7 3 17.7 32.2 0.00 0.00 0.00 53 729.8
20260507173805 7 9 14.5 35.4 0.00 0.00 0.00 51 729.8
20260507173302 7 0 16.1 43.5 0.00 0.00 0.00 53 729.8
20260507172802 7 0 16.1 33.8 0.00 0.00 0.00 51 729.4
20260507172307 7 6 12.9 32.2 0.00 0.00 0.00 49 729.8
20260507171805 8 5 17.7 32.2 0.00 0.00 0.00 49 729.4
20260507171302 7 4 17.7 37.0 0.00 0.00 0.00 48 729.8
20260507170803 7 9 19.3 35.4 0.00 0.00 0.00 47 729.4
20260507170305 8 358 12.9 32.2 0.00 0.00 0.00 48 729.4
20260507165802 7 337 8.0 27.4 0.00 0.00 0.00 45 729.8
20260507165306 7 3 14.5 29.0 0.00 0.00 0.00 45 729.4
20260507164802 7 5 14.5 32.2 0.00 0.00 0.00 46 729.4
20260507164302 7 13 11.3 27.4 0.00 0.00 0.00 43 729.4
20260507163802 7 4 12.9 29.0 0.00 0.00 0.00 44 729.4
20260507163302 7 65 14.5 35.4 0.00 0.00 0.00 40 729.4
20260507162802 7 17 16.1 33.8 0.00 0.00 0.00 42 729.4
20260507162306 7 350 14.5 37.0 0.00 0.00 0.00 42 729.4
20260507161802 7 351 16.1 33.8 0.00 0.00 0.00 38 729.4
20260507161302 7 345 12.9 30.6 0.00 0.00 0.00 36 729.4
20260507160802 7 0 14.5 35.4 0.00 0.00 0.00 35 729.4
20260507160302 7 355 9.7 24.1 0.00 0.00 0.00 37 729.4
20260507155802 7 348 8.0 35.4 0.00 0.00 0.00 37 729.4
20260507155306 7 0 11.3 29.0 0.00 0.00 0.00 37 729.1
20260507154802 6 350 11.3 29.0 0.00 0.00 0.00 38 729.4
20260507154302 6 8 11.3 30.6 0.00 0.00 0.00 37 729.1
20260507153802 6 339 11.3 32.2 0.00 0.00 0.00 38 729.1
20260507153305 6 6 12.9 32.2 0.00 0.00 0.00 38 729.1
20260507152802 6 12 12.9 33.8 0.00 0.00 0.00 38 728.7
20260507152305 6 11 16.1 33.8 0.00 0.00 0.00 38 728.7
20260507151802 6 3 14.5 37.0 0.00 0.00 0.00 38 728.7
20260507151302 6 7 17.7 37.0 0.00 0.00 0.00 37 728.7
20260507150802 6 0 14.5 37.0 0.00 0.00 0.00 36 728.7
20260507150302 6 6 14.5 30.6 0.00 0.00 0.00 37 728.7
20260507145802 6 358 17.7 35.4 0.00 0.00 0.00 35 728.7
20260507145306 6 0 14.5 35.4 0.00 0.00 0.00 36 728.7
20260507144802 6 347 12.9 27.4 0.00 0.00 0.00 37 728.7
20260507144302 6 1 12.9 33.8 0.00 0.00 0.00 37 728.7
20260507143802 5 349 11.3 30.6 0.00 0.00 0.00 36 728.7
20260507143302 5 0 12.9 27.4 0.00 0.00 0.00 40 728.7
20260507142802 5 5 14.5 25.7 0.00 0.00 0.00 41 728.7
20260507142306 5 10 9.7 24.1 0.00 0.00 0.00 40 728.7
20260507141802 5 355 11.3 20.9 0.00 0.00 0.00 41 728.7
20260507141305 5 21 9.7 22.5 0.00 0.00 0.00 41 728.7
20260507140802 5 2 9.7 20.9 0.00 0.00 0.00 44 728.7
20260507140307 5 5 11.3 17.7 0.00 0.00 0.00 44 728.7
20260507135802 5 17 6.4 20.9 0.00 0.00 0.00 45 728.7
20260507135305 5 2 6.4 16.1 0.00 0.00 0.00 45 728.7
20260507134802 4 356 9.7 19.3 0.00 0.00 0.00 46 728.4
20260507134302 4 356 9.7 22.5 0.00 0.00 0.00 47 728.4
20260507133802 4 355 11.3 19.3 0.00 0.00 0.00 46 728.4
20260507133302 4 343 8.0 17.7 0.00 0.00 0.00 45 728.4
20260507132802 3 299 3.2 11.3 0.00 0.00 0.00 46 728.4
20260507132307 3 47 1.6 16.1 0.00 0.00 0.00 47 728.4
20260507131805 3 352 6.4 14.5 0.00 0.00 0.00 51 728.1
20260507131305 3 339 4.8 14.5 0.00 0.00 0.00 54 728.1
20260507130802 2 347 4.8 16.1 0.00 0.00 0.00 55 728.1
20260507130302 2 356 4.8 14.5 0.00 0.00 0.00 60 728.1
20260507125802 2 350 6.4 12.9 0.00 0.00 0.00 61 728.1
20260507125306 2 331 4.8 11.3 0.00 0.00 0.00 61 727.7
20260507124803 2 344 4.8 12.9 0.00 0.00 0.00 62 727.7
20260507124305 2 207 0.0 12.9 0.00 0.00 0.00 62 727.7
20260507123802 2 358 6.4 17.7 0.00 0.00 0.00 63 727.7
20260507123305 2 84 4.8 12.9 0.00 0.00 0.00 62 727.7
20260507122802 2 18 6.4 19.3 0.00 0.00 0.00 62 727.7
20260507122306 2 61 3.2 17.7 0.00 0.00 0.00 61 727.7
20260507121802 2 350 3.2 16.1 0.00 0.00 0.00 61 727.7
20260507121302 2 1 6.4 19.3 0.00 0.00 0.00 61 727.7
20260507120802 2 334 4.8 17.7 0.00 0.00 0.00 61 727.7
20260507120305 2 28 6.4 20.9 0.00 0.00 0.00 61 727.7
20260507115802 2 7 4.8 19.3 0.00 0.00 0.00 61 727.7
20260507115306 2 308 6.4 17.7 0.00 0.00 0.00 61 727.7
20260507114803 2 24 4.8 20.9 0.00 0.00 0.00 61 727.7
20260507114302 2 345 12.9 25.7 0.00 0.00 0.00 61 727.7
20260507113805 2 357 8.0 19.3 0.00 0.00 0.00 59 727.7
20260507113302 2 333 4.8 17.7 0.00 0.00 0.00 57 727.7
20260507112803 2 5 6.4 22.5 0.00 0.00 0.00 56 727.7
20260507112306 2 24 8.0 19.3 0.00 0.00 0.00 56 727.7
20260507111802 2 27 4.8 19.3 0.00 0.00 0.00 56 727.7
20260507111302 2 4 8.0 19.3 0.00 0.00 0.00 57 727.7
20260507110803 2 0 9.7 17.7 0.00 0.00 0.00 56 727.7
20260507110302 3 339 3.2 19.3 0.00 0.00 0.00 51 727.7
20260507105802 3 10 6.4 17.7 0.00 0.00 0.00 50 727.7
20260507105306 3 357 8.0 19.3 0.00 0.00 0.00 49 727.4
20260507104802 3 9 9.7 20.9 0.00 0.00 0.00 49 727.7
20260507104302 3 5 8.0 20.9 0.00 0.00 0.00 43 727.7
20260507103802 3 330 8.0 20.9 0.00 0.00 0.00 39 727.4
20260507103302 3 14 11.3 22.5 0.00 0.00 0.00 41 727.7
20260507102802 3 358 9.7 19.3 0.00 0.00 0.00 34 727.7
20260507102306 3 336 4.8 25.7 0.00 0.00 0.00 36 727.7
20260507101802 3 37 6.4 25.7 0.00 0.00 0.00 30 727.7
20260507101307 3 11 3.2 16.1 0.00 0.00 0.00 26 727.7
20260507100805 3 284 3.2 14.5 0.00 0.00 0.00 24 727.7
20260507100303 3 343 6.4 12.9 0.00 0.00 0.00 23 727.4
20260507095802 3 29 4.8 16.1 0.00 0.00 0.00 22 727.7
20260507095305 3 319 1.6 17.7 0.00 0.00 0.00 23 727.7
20260507094805 3 8 4.8 14.5 0.00 0.00 0.00 24 727.7
20260507094302 3 350 6.4 16.1 0.00 0.00 0.00 23 727.4
20260507093802 3 355 4.8 19.3 0.00 0.00 0.00 23 727.4
20260507093305 2 9 8.0 17.7 0.00 0.00 0.00 22 727.4
20260507092802 3 13 6.4 19.3 0.00 0.00 0.00 23 727.7
20260507092306 3 7 6.4 20.9 0.00 0.00 0.00 23 727.7
20260507091803 3 7 4.8 16.1 0.00 0.00 0.00 23 727.7
20260507091302 3 5 6.4 16.1 0.00 0.00 0.00 23 727.7
20260507090805 3 357 3.2 17.7 0.00 0.00 0.00 23 727.7
20260507090305 3 358 6.4 16.1 0.00 0.00 0.00 23 727.7
20260507085802 3 356 6.4 16.1 0.00 0.00 0.00 23 727.7
20260507085306 3 345 6.4 16.1 0.00 0.00 0.00 23 727.7
20260507084802 3 355 6.4 19.3 0.00 0.00 0.00 23 727.7
20260507084302 3 341 6.4 19.3 0.00 0.00 0.00 23 727.7
20260507083802 3 355 9.7 22.5 0.00 0.00 0.00 23 727.7
20260507083305 3 3 4.8 17.7 0.00 0.00 0.00 23 727.7
20260507082803 3 346 8.0 17.7 0.00 0.00 0.00 23 727.7
20260507082306 3 339 8.0 19.3 0.00 0.00 0.00 23 727.7
20260507081802 3 351 8.0 24.1 0.00 0.00 0.00 23 727.7
20260507081302 3 9 8.0 22.5 0.00 0.00 0.00 23 727.7
20260507080802 3 357 11.3 29.0 0.00 0.00 0.00 23 727.7
20260507080302 3 357 12.9 27.4 0.00 0.00 0.00 24 727.7
20260507075802 3 0 16.1 27.4 0.00 0.00 0.00 23 727.7
20260507075306 3 354 11.3 24.1 0.00 0.00 0.00 23 727.7
20260507074802 3 3 12.9 29.0 0.00 0.00 0.00 23 727.7
20260507074303 3 4 17.7 27.4 0.00 0.00 0.00 23 727.7
20260507073802 3 7 14.5 27.4 0.00 0.00 0.00 23 727.7
20260507073302 3 7 17.7 29.0 0.00 0.00 0.00 23 727.7
20260507072802 3 358 12.9 29.0 0.00 0.00 0.00 23 728.1
20260507072306 3 0 14.5 24.1 0.00 0.00 0.00 24 728.1
20260507071802 3 351 11.3 24.1 0.00 0.00 0.00 24 728.1
20260507071302 3 358 11.3 25.7 0.00 0.00 0.00 23 728.1
20260507070802 3 0 12.9 27.4 0.00 0.00 0.00 24 728.1
20260507070302 3 356 14.5 29.0 0.00 0.00 0.00 23 728.1
20260507065802 3 345 14.5 32.2 0.00 0.00 0.00 23 728.1
20260507065305 3 0 16.1 30.6 0.00 0.00 0.00 24 728.1
20260507064802 3 0 14.5 30.6 0.00 0.00 0.00 24 728.1
20260507064302 3 2 17.7 30.6 0.00 0.00 0.00 26 727.7
20260507063802 2 0 17.7 38.6 0.00 0.00 0.00 28 728.1
20260507063302 2 351 12.9 25.7 0.00 0.00 0.00 31 728.1
20260507062802 2 353 12.9 29.0 0.00 0.00 0.00 35 728.1
20260507062305 2 348 12.9 24.1 0.00 0.00 0.00 37 728.1
20260507061802 2 348 11.3 27.4 0.00 0.00 0.00 37 728.1
20260507061302 2 0 14.5 32.2 0.00 0.00 0.00 36 728.1
20260507060805 2 1 16.1 32.2 0.00 0.00 0.00 36 728.1
20260507060303 2 358 16.1 29.0 0.00 0.00 0.00 36 727.7
20260507055802 2 7 19.3 32.2 0.00 0.00 0.00 36 728.1
20260507055305 2 354 12.9 32.2 0.00 0.00 0.00 38 728.1
20260507054802 2 7 20.9 32.2 0.00 0.00 0.00 39 728.1
20260507054302 2 1 16.1 27.4 0.00 0.00 0.00 43 728.1
20260507053802 2 353 16.1 35.4 0.00 0.00 0.00 43 728.1
20260507053303 2 346 14.5 29.0 0.00 0.00 0.00 44 728.1
20260507052805 2 347 14.5 29.0 0.00 0.00 0.00 44 728.1
20260507052306 2 346 12.9 30.6 0.00 0.00 0.00 43 728.1
20260507051802 2 6 17.7 32.2 0.00 0.00 0.00 43 728.1
20260507051302 2 355 11.3 30.6 0.00 0.00 0.00 45 728.1
20260507050802 2 353 14.5 32.2 0.00 0.00 0.00 42 727.7
20260507050307 2 350 12.9 29.0 0.00 0.00 0.00 44 727.7
20260507045805 2 1 16.1 32.2 0.00 0.00 0.00 45 727.7
20260507045306 2 0 14.5 33.8 0.00 0.00 0.00 41 727.7
20260507044802 2 351 14.5 33.8 0.00 0.00 0.00 45 727.7